Location: Ravensburg
(47.7866°N, 9.6124°E)
Time: 09:58:50
(UTC+02:00)

METEOR M2 - Pass Details

Date: 16 March 2026
Orbit: 817 x 824 km, 98.5° (Epoch: 18 April)

Event Time Altitude Azimuth Distance (km) Brightness Sun altitude
Rises 05:18:56 0° 11° (N) 3,373 ? -13.2°
Reaches altitude 10° 05:21:19 10° 7° (N) 2,436 ? -12.8°
Maximum altitude 05:26:35 57° 290° (WNW) 964 ? -11.9°
Drops below altitude 10° 05:31:50 10° 213° (SSW) 2,418 ? -11.1°
Sets 05:34:12 0° 209° (SSW) 3,346 ? -10.7°
